Theta_e
338 338 337 335 334 333 333 333 333 332 331 333 331 329 327 329 333 333 333 336 335 335 333 333 334 334 334 333 332 332 333 334 333 334 333 331 331 333 335 334 336 335 334 334 334 337 338 337 336 335 333 332 332 331 332 332 331 330 331 330 329 329 328 328 329 329 329 329 329 328 328 328 328 328 327 327 327 327 326 326 326 326 326 326 326
338 338 337 334 333 333 333 332 331 332 332 332 332 329 329 331 332 334 336 335 334 334 332 333 332 332 333 333 333 334 334 335 333 332 332 331 331 333 335 337 338 337 336 334 336 337 338 339 337 336 335 335 334 333 333 333 331 331 331 331 330 330 331 330 329 328 328 329 328 328 328 328 328 328 328 327 327 327 326 326 326 326 326 326 325
336 336 336 334 334 332 333 333 331 333 333 331 333 332 333 332 333 333 333 333 333 334 332 333 333 332 331 332 332 332 334 334 333 332 332 331 331 331 333 336 337 337 336 337 337 336 339 339 340 339 337 336 336 335 334 333 333 333 332 332 331 331 331 331 331 330 329 329 328 328 328 328 328 328 328 327 327 327 327 327 326 326 325 326 326
336 336 334 335 334 332 334 334 333 335 333 334 334 335 336 334 333 334 333 332 333 332 331 331 332 333 332 332 332 333 333 334 333 332 331 330 330 332 334 337 339 337 337 338 338 340 340 340 340 340 339 338 336 336 335 334 334 333 333 332 332 332 332 332 332 331 330 329 329 328 328 328 327 327 327 327 327 327 327 327 327 326 326 326 325
335 336 338 335 334 334 335 335 336 335 335 335 337 336 334 334 335 334 332 332 332 331 333 332 331 332 332 332 333 332 331 331 331 331 330 329 330 332 333 334 335 338 339 340 339 338 338 338 338 339 338 338 338 337 336 335 334 334 334 333 332 333 333 333 333 332 331 330 329 329 328 329 328 328 328 327 327 327 326 327 327 327 327 326 326
336 337 335 335 335 335 335 334 335 337 336 335 334 335 334 334 334 333 335 332 330 330 330 330 330 330 329 331 332 332 331 331 330 330 331 331 329 330 332 333 333 334 336 339 338 338 338 337 337 337 338 337 338 338 338 337 336 336 335 334 333 333 333 333 333 333 333 332 331 330 329 329 329 329 328 328 327 327 327 327 326 326 326 326 326
335 337 334 335 335 334 334 334 337 336 336 335 335 335 334 333 334 333 332 331 331 330 329 329 330 329 329 330 331 332 331 330 329 329 332 332 331 331 331 331 331 333 334 332 338 338 338 338 337 337 337 337 337 337 337 337 337 337 336 335 335 334 333 333 333 334 333 332 332 331 331 330 330 330 329 329 329 328 328 328 328 327 327 326 326
336 337 337 335 334 334 334 335 336 335 335 336 335 334 334 334 334 332 330 330 331 329 330 330 330 331 331 330 330 330 328 328 328 329 331 331 331 331 332 331 331 331 335 331 330 335 338 338 338 338 338 337 337 337 337 337 337 336 336 336 336 335 335 334 334 333 333 333 333 332 332 331 330 330 330 330 329 329 329 329 329 328 328 327 327
337 337 339 336 334 335 335 335 335 334 334 334 334 334 335 335 334 333 331 329 329 328 329 329 328 329 330 329 329 330 328 328 328 328 331 330 330 331 331 331 334 338 331 330 330 329 336 336 337 336 337 338 337 336 337 336 336 337 337 337 336 336 336 335 335 334 333 333 333 333 333 332 332 331 331 330 330 330 330 330 329 329 329 328 328
335 338 338 339 334 335 335 335 336 335 334 334 333 334 334 334 332 333 332 330 329 329 328 328 330 330 329 329 329 329 329 328 329 332 329 329 329 330 331 332 332 332 332 331 330 329 329 334 336 336 337 335 337 337 337 337 337 336 336 336 337 336 336 336 336 335 334 334 333 333 332 332 332 332 332 332 332 332 332 331 331 330 330 330 329
333 336 335 336 335 336 336 335 336 335 335 333 332 333 332 332 332 332 333 331 330 330 329 329 330 331 330 329 330 330 330 329 328 329 328 329 331 333 332 331 331 331 331 332 330 329 327 326 326 328 332 337 337 337 337 337 337 337 337 337 336 337 337 337 336 335 334 334 333 333 333 333 333 333 332 332 332 332 332 332 332 332 331 331 330
335 337 334 336 336 335 333 333 334 335 333 331 330 331 331 331 331 331 330 331 331 330 329 329 329 328 326 327 328 328 330 329 328 328 328 329 330 330 330 329 330 330 331 332 331 330 328 327 329 328 332 334 335 336 337 337 336 336 337 337 338 337 338 337 337 336 335 334 333 333 333 333 332 332 332 333 332 333 333 332 332 332 331 331 330
335 335 332 332 333 334 333 332 334 334 333 331 332 332 332 331 331 330 329 328 328 328 328 329 325 322 324 324 325 326 328 328 327 327 327 329 329 329 329 329 328 329 329 330 331 331 330 329 327 329 330 330 332 335 334 334 336 336 336 339 339 339 338 337 336 336 334 334 333 333 332 332 332 331 331 330 331 331 331 330 331 332 332 331 331
335 335 332 331 330 333 336 333 333 334 334 335 334 335 333 332 332 328 328 327 326 328 329 327 322 320 319 320 322 323 325 327 328 329 330 330 328 328 329 329 329 328 331 331 331 333 331 329 328 329 329 329 329 328 330 331 333 335 335 336 336 337 337 336 336 335 334 334 333 333 332 331 329 328 327 327 328 328 328 328 329 330 331 331 330
335 335 332 331 330 330 334 334 335 334 334 334 334 332 331 331 331 329 327 327 328 329 328 325 322 322 321 319 316 316 319 322 323 326 330 328 328 328 328 329 331 331 330 329 330 332 333 330 328 329 328 327 327 327 328 331 331 333 335 335 335 335 335 336 335 335 334 333 333 332 330 329 327 326 326 325 325 326 326 326 328 328 328 328 328
335 334 334 333 333 331 331 335 334 334 333 332 332 332 331 331 331 329 327 324 326 326 329 328 326 323 316 313 315 316 314 314 317 322 327 328 328 328 329 331 330 331 329 328 328 327 326 327 328 328 327 326 326 325 325 326 330 331 331 331 333 333 334 334 333 332 332 332 331 331 328 327 327 325 325 324 323 323 323 323 323 324 324 325 325
334 334 334 333 333 333 333 335 333 334 333 332 332 332 331 332 331 329 327 326 326 325 326 329 327 326 320 316 314 313 313 313 316 317 324 325 327 327 328 328 328 328 327 327 323 324 325 327 327 327 326 325 324 324 323 323 323 327 326 329 330 330 330 332 332 332 332 330 329 328 327 326 326 324 324 323 323 323 323 323 323 323 324 324 324
333 333 334 333 332 332 334 334 331 334 334 333 333 333 331 331 332 330 328 329 327 326 325 326 328 329 327 322 318 312 315 317 315 310 321 324 324 326 326 327 327 326 325 321 322 323 326 326 326 326 326 325 322 321 321 320 323 318 317 322 325 327 327 327 329 330 330 329 327 326 326 325 325 325 324 323 323 322 322 322 322 322 322 322 322
334 332 331 333 332 333 335 334 333 333 334 333 332 332 333 334 333 332 330 329 328 325 325 324 325 327 329 328 325 325 323 318 311 314 312 316 322 321 322 326 325 325 319 319 322 322 323 325 325 324 321 320 319 318 318 320 323 323 325 323 321 320 321 323 327 329 329 329 328 327 326 325 324 323 323 323 322 322 322 321 321 321 321 320 320
335 335 333 333 332 334 335 334 332 333 334 332 332 332 331 331 331 332 332 330 328 326 324 324 321 321 325 325 325 324 324 320 320 317 314 312 312 317 317 317 318 316 317 318 320 320 320 321 322 321 319 318 317 317 316 315 313 314 316 320 319 319 319 319 320 322 328 330 330 329 328 326 326 324 323 322 321 320 320 321 321 321 320 319 318
335 335 334 336 334 335 336 334 333 333 335 333 331 331 329 329 330 331 330 329 329 327 326 323 323 322 323 324 323 322 322 322 322 319 313 312 310 311 309 313 315 314 314 316 317 318 319 320 322 321 320 318 317 316 315 313 313 312 318 318 318 318 317 316 314 313 317 327 328 328 328 327 326 325 324 323 322 322 321 321 320 320 319 319 318
332 333 333 335 334 334 335 334 332 332 332 331 331 331 330 330 330 329 328 327 328 328 326 325 325 325 326 324 322 320 321 320 319 318 317 316 312 311 309 309 308 312 313 313 315 316 316 319 321 321 319 317 315 314 313 313 312 314 316 318 318 317 317 316 312 315 316 319 324 324 325 325 325 324 324 324 324 323 322 322 321 320 320 319 318
330 331 332 333 332 334 333 333 332 332 331 329 329 331 330 331 331 330 328 327 326 326 327 326 326 326 325 324 323 321 319 317 317 318 317 314 314 312 312 311 309 309 312 314 312 311 312 314 316 315 315 315 314 313 312 311 317 317 318 317 318 317 316 313 312 313 316 320 321 321 321 321 320 320 320 320 320 321 323 323 323 321 321 320 319
331 331 330 332 331 332 332 334 333 331 330 330 331 332 332 331 330 329 329 328 328 329 328 326 327 325 324 324 323 324 322 321 320 320 318 317 316 314 312 311 311 310 314 313 312 310 310 311 313 313 313 312 312 312 313 313 315 318 316 317 316 315 315 314 310 311 311 316 319 321 321 321 320 319 318 317 317 316 317 319 322 322 321 320 320
330 330 330 332 332 332 333 331 330 329 329 331 332 334 333 331 330 329 330 330 330 330 328 327 328 326 325 323 324 323 322 323 323 322 320 319 318 315 315 312 308 309 310 311 309 309 308 310 311 311 310 311 312 311 311 312 312 316 316 315 315 314 314 317 314 310 308 309 313 318 319 319 319 318 317 316 315 315 315 314 311 310 311 314 319
329 329 331 332 333 333 332 330 330 329 328 328 331 333 332 333 332 332 332 332 331 330 329 328 328 327 326 324 323 323 323 324 324 324 322 320 316 316 314 312 310 309 309 310 309 305 305 308 309 309 309 310 310 310 310 311 311 316 314 312 312 313 313 315 317 313 311 309 309 313 315 318 317 316 316 315 314 314 311 308 309 308 307 308 311
330 331 331 330 332 332 332 330 330 330 330 329 330 331 331 331 332 332 331 330 331 330 329 328 327 327 326 325 324 323 324 324 325 325 325 322 320 317 313 307 306 306 306 307 305 304 303 304 307 307 307 308 309 309 310 310 312 315 314 309 309 311 311 312 314 314 310 308 306 307 308 310 311 311 311 311 309 308 311 311 311 309 309 309 311
331 331 331 331 331 331 331 331 331 331 330 328 329 331 332 330 330 330 330 332 330 329 329 329 328 328 327 325 324 324 325 326 326 324 324 323 322 320 313 309 305 302 303 301 301 301 305 302 306 307 308 308 309 309 312 312 311 314 313 307 306 307 308 309 312 314 312 308 306 304 304 304 305 306 307 308 310 311 311 311 311 310 309 310 311
331 331 331 331 331 330 330 329 329 330 330 329 329 330 329 330 330 328 329 331 330 329 328 328 328 328 326 324 324 324 324 325 326 325 325 324 323 322 316 310 308 303 299 297 298 298 302 306 303 305 307 308 308 310 310 309 312 312 308 306 304 304 307 308 309 308 308 308 307 306 305 305 305 306 310 311 312 311 311 311 310 309 310 311 311
331 331 330 330 330 332 329 329 329 329 329 330 329 329 327 328 330 329 329 330 329 328 328 328 327 328 326 325 325 323 324 324 324 324 325 323 322 322 320 315 307 304 301 298 298 300 300 305 305 304 306 307 308 309 309 308 313 312 309 306 304 304 307 308 307 305 305 306 305 305 303 305 306 308 312 313 313 312 309 308 307 307 308 312 312
330 329 329 328 328 328 328 327 327 328 328 328 328 329 329 328 328 328 327 328 328 326 327 328 328 327 326 325 324 323 324 324 324 323 324 323 322 321 320 318 313 305 303 301 298 301 304 304 305 308 307 306 308 307 308 308 312 311 308 307 306 307 308 307 307 305 305 305 303 303 304 305 304 306 309 313 313 312 309 309 308 305 307 310 311
329 328 328 327 326 326 326 327 327 327 328 327 327 328 328 327 327 327 327 328 328 326 326 327 330 327 326 325 324 323 323 323 322 321 322 323 323 322 321 318 316 312 305 303 300 301 303 305 306 306 307 306 306 305 304 306 311 313 308 307 308 310 306 304 306 305 305 304 304 304 308 308 305 306 308 311 312 311 311 311 310 308 308 308 307
328 328 327 326 325 325 326 326 326 325 325 324 325 326 326 327 327 328 328 328 328 326 327 326 328 328 327 326 324 324 323 322 322 322 323 323 323 323 321 317 316 315 306 302 301 302 305 307 307 306 306 306 304 305 303 303 305 309 310 307 307 306 304 302 303 304 304 303 302 302 303 304 304 307 308 307 310 309 310 308 309 309 307 305 304
328 327 326 325 323 323 323 324 324 325 325 325 324 325 325 327 327 329 328 327 326 326 325 326 326 328 326 325 325 324 325 323 322 323 322 322 322 321 320 319 316 313 309 306 303 302 304 305 305 307 306 306 304 305 303 302 302 306 307 308 308 307 305 302 301 302 303 303 302 301 301 303 303 302 303 302 303 305 306 306 304 303 307 304 301
326 325 324 323 322 322 322 323 323 324 324 324 324 323 322 325 327 327 326 324 323 324 324 324 324 325 325 325 324 325 326 322 321 321 321 321 321 320 318 317 315 310 310 307 305 303 304 303 305 306 306 306 305 305 305 304 304 305 307 307 309 309 307 304 303 303 302 302 301 301 301 301 302 302 301 302 302 302 303 304 303 302 302 302 299
324 323 323 323 323 321 323 322 323 323 323 324 324 323 324 324 325 325 324 323 324 324 324 323 323 323 323 323 322 323 322 322 322 320 320 320 320 319 317 316 315 311 310 308 307 306 305 304 305 307 307 306 305 307 307 306 304 304 307 308 310 309 308 306 304 304 304 302 302 301 302 302 301 301 300 300 302 302 301 301 302 301 300 301 300
323 323 323 323 323 322 321 321 322 322 322 324 323 322 322 324 324 324 323 323 323 324 324 323 325 323 322 322 322 322 322 320 320 319 319 318 319 319 316 315 312 310 313 309 308 309 308 306 306 307 308 307 308 307 308 305 305 305 306 307 308 309 308 307 306 307 306 304 302 302 301 301 301 301 300 300 301 301 301 300 301 301 301 301 300
322 324 322 322 322 321 320 319 320 320 322 322 321 321 324 324 323 323 323 321 322 321 322 322 323 323 322 322 322 322 322 321 321 321 319 318 317 316 316 314 310 309 310 309 310 310 309 307 307 307 305 306 305 306 308 307 305 304 305 306 307 309 308 307 307 308 309 308 305 303 303 301 301 301 302 300 300 300 300 300 300 301 301 300 300
322 321 321 320 320 321 319 318 318 318 318 319 319 320 322 323 323 322 321 319 319 319 319 320 322 324 323 323 322 323 322 321 320 320 320 319 318 314 314 313 309 307 310 310 311 310 308 308 306 306 306 306 306 305 306 309 307 306 305 304 304 307 309 308 308 309 309 308 305 303 302 301 302 301 301 300 300 301 300 300 300 301 300 299 299
321 321 320 320 319 318 315 314 312 310 309 308 309 312 317 320 320 319 320 319 318 319 318 318 320 323 324 324 324 323 322 322 321 320 321 319 318 314 318 317 312 306 307 308 309 308 308 307 307 305 306 305 306 308 308 308 306 305 307 306 304 304 305 307 308 308 305 304 303 302 302 301 300 301 300 300 300 300 301 301 301 301 301 299 298
321 320 320 319 318 316 314 310 309 307 305 303 301 301 309 315 318 317 318 318 318 316 316 317 318 321 322 322 322 323 324 324 317 317 316 319 318 313 314 316 314 305 303 306 308 308 307 307 307 307 306 306 307 307 306 304 304 305 307 307 306 307 307 306 307 307 305 302 302 301 300 300 299 299 299 298 298 300 300 301 301 302 300 298 298
320 319 319 319 317 313 310 308 305 304 301 301 299 297 299 310 313 318 317 316 316 314 315 316 316 317 317 317 320 322 318 312 307 302 302 307 312 314 314 315 315 310 309 307 307 308 309 307 306 307 306 306 306 307 306 306 307 307 308 308 306 307 306 306 307 306 305 303 301 300 300 301 299 299 298 298 299 301 299 300 299 300 300 298 298
319 318 318 316 314 311 308 305 302 300 298 297 294 293 294 299 309 311 315 314 315 314 315 315 314 313 312 313 315 318 315 313 305 299 298 299 300 302 305 309 314 316 313 311 311 310 308 309 307 306 305 305 306 308 307 308 309 308 307 308 308 307 305 303 302 304 306 304 302 301 301 301 300 298 299 299 299 300 300 300 300 300 299 298 298
317 317 316 314 312 309 305 302 300 298 296 295 292 293 293 293 301 310 312 314 314 313 314 315 315 313 312 311 311 313 311 310 307 303 301 297 296 296 297 299 300 303 306 310 309 309 308 306 306 308 307 307 309 308 308 307 307 307 307 307 306 306 304 303 302 304 306 306 303 302 303 303 302 300 300 301 301 301 301 300 299 298 299 299 298
316 314 312 310 307 304 301 299 297 296 295 293 292 293 293 292 294 304 311 312 314 313 312 314 313 314 314 314 314 315 314 314 313 311 308 303 297 296 298 298 298 299 299 301 305 309 309 307 305 306 308 309 310 309 311 312 311 311 307 307 306 305 304 303 303 303 305 307 305 303 303 305 303 301 301 303 303 302 302 300 299 298 299 298 298
310 309 307 306 304 302 300 298 296 295 294 293 292 293 293 293 293 302 312 313 315 314 313 315 315 315 316 314 311 308 305 303 302 303 310 309 306 305 306 307 307 302 299 298 300 303 306 309 308 306 307 312 310 308 313 313 312 310 309 308 306 307 308 308 308 307 308 313 307 306 303 304 304 303 302 304 306 303 303 301 299 298 298 298 297
307 306 305 303 302 301 300 298 297 295 294 292 292 292 293 293 296 304 313 315 314 313 314 316 317 316 313 311 307 303 300 298 297 297 306 310 311 313 311 313 311 312 311 310 308 306 306 310 308 308 308 310 311 311 308 309 312 312 312 311 311 312 312 309 309 309 311 313 312 308 307 303 305 303 304 305 307 305 303 301 300 298 298 298 297
307 306 305 304 302 301 300 299 297 295 294 291 291 292 293 294 298 307 309 311 313 312 309 309 310 312 309 306 301 298 296 295 295 295 300 313 315 314 313 313 314 313 311 306 301 302 308 309 308 309 309 306 302 306 306 306 307 308 309 309 310 309 308 307 306 305 308 307 310 308 304 303 306 308 308 308 308 305 304 303 300 299 298 298 297
306 305 305 304 303 301 301 300 298 295 294 292 291 292 294 295 301 306 306 310 312 305 302 300 300 301 302 300 298 296 294 294 293 294 297 303 307 307 308 309 311 307 304 304 302 299 298 298 299 301 301 299 296 295 296 296 300 304 306 306 306 306 305 304 305 304 306 304 305 306 304 303 304 306 305 305 308 307 306 305 303 298 298 298 297
303 304 304 304 304 303 302 300 298 296 295 294 292 292 293 295 300 303 304 307 308 303 300 298 297 296 299 302 299 295 294 293 291 292 294 300 301 303 304 304 307 304 301 301 303 303 299 298 298 299 300 302 302 302 300 299 297 299 306 306 306 305 306 303 304 305 304 303 304 308 305 304 307 307 307 306 305 304 307 306 302 299 297 297 296
303 303 303 303 302 302 302 302 301 297 296 295 292 292 293 294 299 300 301 303 305 305 303 300 298 297 296 296 297 296 294 292 290 291 292 297 299 301 301 302 302 301 299 298 299 299 299 299 299 302 301 301 305 308 310 305 304 302 306 309 308 306 306 304 304 304 305 303 306 311 307 302 304 304 306 304 303 305 302 299 298 297 296 296 296
Wind_Speed
7 6 6 5 5 5 5 5 5 5 5 4 4 5 5 5 5 6 5 4 5 8 10 4 5 5 5 3 4 5 5 5 6 6 5 4 3 6 10 10 9 10 11 11 12 15 13 12 11 11 10 10 10 10 10 11 11 11 11 11 10 10 10 10 10 10 11 11 11 11 11 11 12 12 13 13 14 14 14 15 15 15 16 16 16
6 6 5 5 6 6 6 6 6 6 6 6 6 6 6 5 5 3 5 5 6 8 9 3 3 4 4 4 4 4 2 3 6 6 4 4 3 4 9 6 6 8 10 11 14 13 13 12 12 11 11 10 9 9 10 10 11 11 10 10 10 10 10 9 9 10 9 10 10 11 10 11 12 11 11 12 12 13 13 14 14 14 14 15 16
5 5 6 5 7 7 7 7 6 7 7 7 6 6 5 5 6 6 6 7 7 7 7 6 4 5 1 3 5 3 2 5 6 6 5 3 3 3 5 8 8 8 7 6 10 11 12 11 11 11 10 10 10 10 10 10 10 10 10 10 10 11 11 10 9 9 9 9 9 10 10 10 10 11 11 11 11 11 12 13 13 14 14 14 15
4 4 4 3 7 6 4 5 5 6 6 4 5 3 4 5 5 6 7 7 7 6 5 6 4 5 3 5 4 3 3 6 6 5 4 4 3 3 4 5 8 8 6 5 6 12 12 11 10 9 9 10 9 10 10 10 9 9 9 9 10 10 11 11 10 9 9 9 9 9 10 10 10 10 10 10 10 10 10 11 12 13 13 13 14
1 3 3 4 6 5 4 3 4 6 5 5 6 7 6 6 7 7 6 7 8 7 5 6 5 4 4 4 4 5 3 6 5 4 3 4 5 4 4 4 4 8 9 9 10 9 8 8 8 8 8 7 8 9 9 9 9 9 9 9 8 9 10 9 10 9 9 9 9 9 10 10 10 10 9 9 9 9 10 10 10 11 11 12 13
2 2 5 5 5 5 4 3 3 4 5 5 7 7 7 7 6 6 6 6 8 7 6 6 5 3 3 3 4 4 4 5 4 4 4 5 5 5 4 4 4 4 4 8 8 7 7 6 6 6 6 6 7 7 8 8 8 9 8 8 8 8 8 8 8 8 9 9 9 10 10 10 10 10 9 9 9 9 10 10 10 10 10 11 11
2 4 4 5 5 5 4 5 5 4 6 5 7 7 6 7 6 7 6 6 7 7 7 6 5 4 4 4 3 5 4 5 4 3 5 5 5 4 5 5 4 4 4 4 5 6 5 6 7 6 5 5 6 5 6 8 7 7 7 7 7 7 6 6 6 7 9 8 9 10 10 10 10 10 10 10 10 11 11 11 10 10 10 10 10
3 3 5 5 5 5 5 5 5 5 5 5 7 6 6 5 5 8 7 6 7 6 6 6 5 5 4 3 3 5 5 4 3 3 4 6 5 5 5 5 4 4 5 4 3 4 7 7 7 7 6 6 7 7 6 7 6 6 5 5 5 5 4 4 4 5 5 7 8 9 9 10 9 9 9 10 10 10 10 10 10 10 10 10 10
3 3 4 4 5 5 5 6 5 5 4 6 6 6 6 6 5 5 7 7 8 8 6 7 5 3 5 4 3 4 5 5 3 3 4 6 5 5 5 5 4 6 4 4 3 2 5 7 6 6 6 6 6 7 7 6 7 6 6 5 6 5 4 4 5 5 5 3 6 7 7 7 8 7 7 7 7 8 8 7 7 7 9 10 11
2 4 4 2 3 5 5 5 5 5 5 6 6 5 6 7 6 4 6 7 7 7 7 6 7 6 5 4 4 3 4 4 3 3 5 5 5 5 5 5 5 4 4 4 3 3 2 4 6 6 6 6 7 8 8 8 7 7 7 8 9 8 7 7 6 5 5 5 5 7 6 6 5 4 5 4 4 5 6 6 5 4 6 8 11
8 2 3 3 3 5 5 4 5 6 6 6 5 5 5 5 6 5 4 6 7 7 7 7 6 6 5 4 4 4 3 3 2 3 4 4 5 4 4 5 4 3 4 4 3 3 2 2 3 3 5 9 8 9 9 9 9 9 10 10 10 10 10 10 10 9 9 8 9 6 6 5 7 7 7 6 6 7 9 9 7 4 3 7 9
2 6 4 2 3 4 7 2 4 6 6 7 5 5 7 7 6 6 6 5 6 7 6 7 6 6 4 4 4 3 3 4 3 3 3 4 4 5 4 3 4 3 4 4 4 3 3 2 3 4 4 7 10 8 9 8 9 11 13 13 12 13 13 13 13 13 12 12 11 11 10 12 13 14 14 16 15 16 15 14 11 8 5 6 8
4 7 6 7 5 1 8 5 6 5 6 7 6 5 5 6 6 5 6 6 6 6 5 7 8 5 5 5 6 4 4 1 3 3 3 3 3 5 4 4 3 3 3 5 4 4 3 2 4 3 4 5 7 10 10 9 9 11 12 14 15 15 15 16 17 16 15 16 16 16 16 16 15 15 16 16 15 15 15 15 16 13 10 9 8
5 6 6 6 1 7 7 6 6 5 5 6 6 5 5 5 5 5 2 6 5 6 6 8 3 5 6 3 4 4 2 2 2 2 3 3 3 3 4 4 4 3 3 5 3 3 3 4 4 4 3 3 5 4 5 6 7 11 13 14 15 16 16 17 18 17 17 17 17 17 16 16 16 15 15 15 14 14 15 15 16 18 17 15 15
6 5 6 3 6 7 2 6 5 6 7 7 7 6 6 6 5 6 5 2 4 6 6 3 6 5 4 5 3 3 2 3 2 3 2 1 1 3 3 3 4 3 4 4 3 3 3 5 4 3 4 5 5 4 5 5 8 11 11 13 14 15 15 15 15 16 17 17 17 17 16 15 15 15 15 14 14 14 14 15 15 16 16 16 16
4 5 4 6 5 4 7 4 6 6 8 7 6 6 6 5 5 6 7 6 4 5 2 4 7 9 5 2 4 3 4 1 1 1 0 1 0 3 3 4 5 4 2 2 3 4 4 5 5 5 5 5 4 5 5 5 9 11 11 11 12 14 15 15 14 14 14 15 16 15 15 14 15 15 15 14 14 14 14 14 15 15 15 16 16
5 5 4 5 4 3 8 4 5 6 7 7 7 7 6 5 6 7 8 8 7 3 1 4 8 4 5 5 3 2 3 3 3 1 0 2 3 3 3 3 4 4 3 2 3 4 5 6 7 6 5 5 5 4 5 4 5 4 6 9 11 12 13 14 14 15 15 15 15 15 14 15 15 15 15 14 14 14 15 15 15 15 15 16 16
6 6 5 6 5 6 6 5 5 5 6 6 6 6 6 5 6 7 6 6 8 6 3 1 4 2 3 4 5 5 7 6 4 3 1 2 1 1 3 3 2 3 3 3 6 5 7 8 7 6 5 4 3 4 4 4 4 4 4 5 9 11 11 12 14 14 15 15 15 15 15 15 15 15 15 15 15 15 15 15 15 15 16 16 16
5 7 5 4 7 9 5 5 5 4 4 6 6 7 6 5 6 7 7 6 6 7 8 4 2 0 0 1 0 1 9 9 3 5 4 0 1 4 3 4 2 2 3 4 6 6 7 7 7 6 5 5 5 5 4 4 5 5 7 8 8 8 8 10 13 14 15 15 15 15 15 15 15 14 15 14 14 14 15 15 15 16 16 16 16
6 7 8 6 6 6 5 6 6 5 4 6 6 6 6 4 5 5 7 7 7 8 7 6 7 3 1 1 0 5 8 2 5 7 7 7 4 2 1 1 4 3 6 6 6 7 6 7 7 6 6 5 5 5 5 4 3 4 5 9 10 10 11 10 9 10 12 14 15 15 15 14 14 14 14 14 14 14 14 15 15 15 15 16 16
7 8 8 9 8 5 5 5 6 5 5 6 5 6 7 6 5 5 6 7 6 6 7 6 6 5 3 1 3 5 3 4 5 3 5 6 3 3 3 5 6 3 5 5 6 5 6 7 7 7 6 5 5 5 5 4 3 3 5 10 10 11 11 10 10 10 10 12 14 14 15 14 15 14 14 13 13 13 13 14 14 14 15 15 15
7 8 7 5 6 5 4 5 5 3 2 4 3 6 6 6 7 7 7 7 6 6 7 6 5 5 5 5 4 3 4 3 3 5 3 2 7 6 4 8 7 1 3 5 5 4 6 7 7 7 6 6 5 5 4 4 3 3 6 11 10 11 11 10 11 11 11 11 12 14 14 14 14 13 13 13 13 13 13 13 13 13 14 14 14
7 7 8 7 5 5 6 6 7 6 4 8 4 8 7 7 7 6 7 8 7 6 6 5 4 5 4 6 6 7 7 5 6 6 4 3 5 4 3 3 7 7 2 4 4 5 6 7 8 7 6 5 5 5 5 4 4 5 9 11 11 10 10 10 9 9 10 10 12 13 14 13 13 13 12 12 12 12 12 12 12 12 12 12 12
7 8 8 9 9 6 5 5 7 8 7 8 8 7 7 7 7 7 6 6 6 6 6 6 5 6 4 5 6 5 4 5 5 6 7 6 8 7 6 3 3 1 3 2 3 6 5 7 7 8 6 6 5 5 5 4 4 9 7 10 11 11 10 10 9 9 10 10 10 11 13 12 12 12 12 11 11 11 11 11 11 11 11 11 12
7 9 8 10 8 8 6 6 4 5 1 3 5 7 8 8 8 7 7 7 7 7 7 7 7 7 6 5 6 5 6 5 6 6 5 6 7 7 3 5 4 3 3 3 2 1 7 8 7 6 7 6 6 6 5 5 4 7 8 7 11 10 10 10 9 9 8 8 8 9 11 11 11 11 11 10 11 11 11 10 9 9 8 9 9
6 7 7 9 8 8 7 6 4 5 3 0 2 7 7 8 8 8 7 7 7 7 7 6 6 6 6 6 5 6 6 5 5 6 6 7 6 8 6 3 4 6 2 3 3 4 2 5 6 7 6 6 6 6 5 5 4 8 9 6 8 10 10 9 8 8 8 9 8 8 8 8 9 10 10 9 9 9 8 8 7 7 7 8 8
7 6 6 7 7 7 7 8 8 7 8 9 4 5 5 6 6 7 6 6 6 7 6 7 7 7 5 6 6 5 6 5 6 6 6 7 7 7 7 7 3 3 4 3 3 4 7 1 4 6 6 6 6 6 6 5 5 8 8 5 4 8 9 9 9 8 8 8 8 7 7 7 7 7 7 7 7 7 7 6 6 6 6 6 6
6 6 6 6 6 5 6 8 9 8 10 7 5 4 6 6 6 7 7 5 6 6 6 6 6 7 6 6 6 5 5 5 5 5 6 7 6 6 7 8 9 5 3 3 3 3 8 6 2 1 7 7 6 6 6 7 5 9 7 4 5 5 8 9 9 8 7 7 7 7 7 7 7 7 7 7 7 7 7 6 6 5 6 5 5
7 6 7 6 6 6 6 6 6 7 8 7 4 3 3 6 7 7 7 6 6 6 5 5 5 5 5 6 6 6 5 4 5 6 5 4 6 6 7 10 9 8 6 6 4 4 4 7 5 3 3 6 7 6 7 6 7 7 4 4 5 4 7 8 8 8 8 7 7 7 7 7 6 7 7 7 7 7 7 6 6 5 5 5 5
8 7 6 7 6 6 6 5 5 6 7 8 10 8 6 5 7 7 6 6 6 5 5 5 5 4 5 5 5 5 4 4 5 5 5 6 7 8 6 5 6 10 7 8 5 4 6 4 3 6 5 5 6 6 6 6 8 8 5 5 5 5 8 8 8 8 8 7 7 7 8 8 8 7 7 7 7 6 6 6 6 5 4 5 6
9 7 6 7 7 6 6 6 5 5 5 5 6 8 6 6 6 6 5 6 6 6 5 5 5 5 5 5 4 4 4 4 4 4 4 4 5 5 6 6 6 5 8 7 6 4 7 7 3 7 10 7 7 6 5 5 8 8 6 6 5 8 9 7 9 8 8 8 8 8 8 9 9 9 8 7 6 6 6 7 6 6 6 6 5
8 7 6 7 6 8 7 7 6 5 5 4 6 6 6 6 7 7 6 6 6 6 5 5 5 5 5 5 4 4 3 4 4 4 3 3 3 3 3 6 6 6 6 7 8 8 6 7 7 7 11 10 8 8 6 6 7 11 5 6 6 8 6 5 8 10 10 10 10 9 10 10 10 9 9 8 8 7 7 7 7 7 7 6 6
9 8 7 6 6 7 8 7 6 5 6 5 5 6 6 6 6 6 7 7 7 6 6 5 5 6 6 5 4 3 3 4 4 4 4 4 3 3 3 3 5 4 7 6 8 6 2 3 8 9 8 10 7 8 9 7 7 7 5 5 5 6 6 6 7 11 13 12 12 12 12 12 11 10 10 10 9 9 8 8 7 7 7 7 7
8 8 7 6 5 5 6 6 6 6 6 5 5 6 6 6 5 5 6 7 7 6 6 6 6 7 6 6 5 4 4 5 4 4 5 4 3 3 4 4 4 3 7 6 7 8 7 3 4 4 8 9 8 8 10 9 8 7 7 5 6 7 8 7 7 8 15 15 15 15 15 14 14 13 13 12 11 11 10 9 9 9 8 9 9
7 7 7 6 5 5 4 5 6 6 6 6 5 5 5 6 6 5 6 5 6 6 6 6 5 5 5 6 6 6 4 4 4 5 4 5 3 4 4 3 4 3 7 6 6 5 9 7 6 8 7 7 7 10 10 10 11 11 10 8 8 8 8 8 8 8 13 17 18 18 18 17 16 15 14 13 13 12 12 11 10 9 9 9 9
7 6 6 6 5 5 5 6 7 7 7 6 5 5 5 5 6 6 5 5 5 6 7 7 6 6 6 5 4 4 4 4 4 4 4 4 4 3 4 3 4 4 6 6 7 6 4 9 6 10 8 9 6 8 9 9 10 10 10 10 7 9 9 10 11 10 12 19 20 19 18 18 17 17 16 14 14 13 13 12 11 10 10 10 10
6 6 5 6 6 5 6 6 7 7 7 7 6 5 4 5 6 6 5 5 4 6 7 6 7 6 6 7 6 6 5 3 3 4 5 4 4 4 4 4 4 4 5 7 6 5 7 9 8 6 8 8 8 8 9 9 7 8 8 10 10 10 10 10 9 10 15 19 21 20 18 17 17 16 16 15 14 14 13 12 12 11 11 11 11
6 5 7 5 6 6 6 5 7 7 8 8 6 6 6 6 5 5 5 4 5 6 6 5 7 6 7 7 7 7 6 7 6 5 4 2 2 4 5 5 3 4 5 6 6 5 7 8 9 7 5 8 4 5 9 10 10 8 7 8 6 7 8 8 9 9 8 8 7 10 12 12 14 16 16 15 15 15 14 13 12 12 12 12 13
7 6 7 6 6 7 4 3 4 5 5 4 3 3 5 6 5 4 4 4 4 3 4 5 8 8 7 7 7 8 7 7 7 6 2 1 1 4 4 4 3 5 5 7 6 7 6 5 3 4 8 5 6 7 6 10 10 11 12 8 8 8 8 10 10 9 7 7 9 13 12 13 14 13 15 16 16 15 14 13 12 12 12 12 13
7 8 7 7 5 6 9 8 8 7 7 7 5 4 2 4 5 5 5 4 4 4 3 4 6 7 7 7 7 7 7 6 5 3 3 2 0 1 1 2 4 6 6 6 6 6 5 4 5 4 4 7 4 3 2 7 5 4 6 8 11 10 9 9 11 10 6 5 7 6 7 7 8 12 12 13 14 14 14 12 13 12 13 13 13
7 7 6 5 10 9 9 10 10 8 8 6 5 4 2 5 2 4 4 4 5 3 3 2 4 6 6 5 5 5 6 8 8 5 6 4 4 3 1 3 1 5 5 4 8 8 5 5 6 3 6 6 8 7 5 7 10 12 9 6 7 9 8 6 8 6 6 7 7 5 7 8 8 8 8 7 9 11 11 12 10 15 15 14 14
7 6 6 8 10 10 10 10 10 8 7 5 6 8 7 3 4 2 4 4 2 4 6 6 5 5 6 5 4 8 9 9 7 9 10 9 7 5 4 4 4 4 3 4 4 6 7 6 6 5 5 6 7 8 6 6 6 4 6 8 9 9 6 7 5 6 6 4 5 7 8 5 7 6 5 8 8 8 8 8 10 11 14 16 16
5 7 9 11 10 10 10 9 10 8 6 4 9 7 10 10 6 4 3 3 3 4 5 7 7 6 4 4 5 8 8 7 7 9 10 11 11 10 8 7 5 5 5 6 4 4 2 3 2 2 2 1 2 3 4 6 3 6 6 7 9 7 7 6 6 3 3 8 7 6 7 5 7 8 8 9 9 7 7 10 14 15 16 17 17
9 10 12 11 10 9 9 10 10 8 7 8 10 11 11 11 8 4 5 5 3 3 3 6 7 7 7 6 5 5 4 4 5 7 7 8 10 10 9 10 9 6 4 5 4 3 3 3 2 2 2 1 0 0 0 1 3 3 2 1 3 4 5 5 4 4 5 9 8 6 9 4 7 7 7 10 9 8 11 13 15 16 16 17 17
10 12 11 12 10 9 10 11 10 8 8 12 12 13 13 11 9 6 4 4 4 3 3 2 3 5 5 5 4 7 6 10 6 3 2 3 5 7 7 7 7 8 6 5 4 4 4 3 1 2 2 1 0 0 1 0 1 1 2 3 1 1 3 4 6 4 4 8 7 7 9 6 8 9 10 10 8 8 9 10 13 15 17 17 18
12 11 12 12 10 9 9 10 10 9 10 11 13 14 13 13 10 5 4 5 4 3 4 5 5 6 6 7 7 6 6 7 7 5 3 2 1 2 2 3 3 2 3 4 4 4 3 3 4 3 4 3 3 2 1 1 1 0 1 1 2 3 4 3 3 3 4 7 9 5 3 5 6 7 8 9 2 5 7 10 15 16 17 16 15
10 10 10 11 9 8 8 9 10 10 8 13 14 14 14 13 12 7 5 4 5 6 8 8 8 8 9 9 8 7 7 7 7 6 4 3 2 3 3 4 4 7 7 6 6 5 5 5 3 2 2 1 0 2 2 2 3 2 2 1 2 3 3 2 2 3 5 3 5 3 6 1 5 3 4 5 5 6 6 9 13 15 17 16 17
9 10 9 9 9 10 9 10 11 10 9 15 14 15 15 13 10 6 5 6 7 9 10 10 10 9 8 8 9 9 8 9 10 11 7 5 7 6 6 6 8 7 7 3 6 7 6 5 3 3 1 1 1 1 1 1 1 1 1 1 1 2 3 3 5 3 3 3 1 1 1 2 3 5 5 5 4 3 4 6 11 12 12 16 16
9 10 9 9 9 10 11 10 10 9 9 12 14 15 16 15 10 7 7 7 10 10 9 9 10 11 10 9 8 8 9 10 11 14 13 11 8 7 5 5 5 5 6 7 8 10 11 11 9 8 5 4 5 6 6 6 3 2 3 6 7 4 5 6 5 3 5 1 1 2 3 2 2 4 3 3 4 5 6 9 7 10 15 13 13
9 9 9 10 10 10 12 11 10 10 9 12 15 16 16 15 11 8 7 8 10 9 9 9 9 10 12 15 10 9 9 7 11 14 13 10 8 7 6 6 6 5 6 7 6 5 6 5 5 7 5 6 6 6 6 7 6 3 1 5 5 2 6 4 6 5 5 2 3 5 2 6 3 4 4 3 2 4 7 6 3 1 4 9 14
9 7 9 11 11 10 10 10 12 10 7 8 13 15 16 15 11 8 8 7 9 7 8 8 8 8 6 8 10 9 7 7 11 12 12 9 7 5 4 5 4 5 4 5 6 8 9 10 9 9 8 8 6 5 6 10 7 5 5 5 4 4 7 7 6 6 8 5 5 6 4 3 3 3 4 1 4 1 2 1 3 3 4 5 7
Wind_Direction
162 171 171 173 170 175 176 174 169 168 165 197 187 180 178 169 181 185 164 129 81 69 75 57 36 70 91 83 74 69 82 103 108 105 96 87 91 116 115 115 124 119 106 104 111 97 100 103 104 105 106 103 100 98 97 95 93 91 88 85 85 84 84 85 87 86 86 85 84 82 81 81 80 77 74 73 74 75 75 72 69 67 66 66 65
166 177 178 181 179 183 180 177 175 168 173 185 198 183 179 174 158 125 112 99 79 81 93 92 57 62 74 98 69 55 15 110 112 102 105 110 120 121 122 108 103 111 116 122 110 109 102 105 106 108 109 110 107 105 101 98 96 93 91 90 86 85 85 87 89 89 89 87 87 85 85 86 84 81 79 75 70 69 70 72 73 72 71 71 67
171 180 192 179 181 175 184 172 170 170 175 189 170 182 181 133 132 127 111 98 93 96 103 105 98 79 48 88 83 92 107 101 95 99 112 123 117 119 115 104 92 97 110 113 107 106 107 105 107 113 114 113 115 111 109 108 104 101 101 99 96 93 92 89 89 90 91 92 93 91 88 88 85 82 80 78 76 74 72 72 72 73 73 71 70
180 191 188 169 159 163 160 135 168 153 167 169 170 151 100 105 109 100 105 110 105 101 104 102 91 110 131 104 105 72 73 87 89 107 127 133 121 90 92 92 93 96 102 86 58 62 81 88 89 95 106 116 120 119 117 116 119 118 113 109 106 103 95 91 89 87 89 93 93 94 93 90 88 85 82 78 78 77 76 73 72 70 70 72 71
204 209 175 167 132 137 126 141 147 145 146 127 106 103 102 91 88 95 101 106 103 99 90 86 85 81 105 108 100 94 106 93 101 104 121 144 129 114 103 100 99 90 84 77 78 89 82 78 87 99 102 113 121 128 126 129 129 128 121 115 111 103 98 96 95 91 94 93 96 99 97 92 90 86 84 81 79 76 75 74 73 72 70 69 70
225 224 176 134 128 134 142 141 123 106 110 107 104 99 104 107 109 109 114 112 112 110 104 86 77 82 80 77 97 117 113 103 110 110 119 126 128 132 123 113 103 95 88 91 90 90 92 92 91 100 109 113 130 138 138 138 136 132 130 127 123 119 111 107 108 107 99 99 104 105 103 100 92 87 85 83 81 80 76 74 73 72 72 72 70
235 219 149 133 136 132 141 143 122 107 103 103 97 106 114 120 124 115 105 101 106 117 113 109 124 127 141 104 118 109 97 109 108 111 110 116 120 132 131 119 108 94 85 80 85 83 75 72 77 74 83 99 120 124 137 133 142 137 134 140 137 134 132 123 121 119 121 116 110 107 107 103 98 92 88 85 82 78 75 74 73 72 72 71 70
252 201 121 140 137 138 143 135 119 113 111 89 98 109 115 114 120 123 121 116 117 117 122 131 125 128 118 118 123 110 114 110 121 116 108 107 116 121 123 126 119 120 119 100 87 94 90 83 68 58 57 73 97 119 122 131 127 127 135 145 143 142 145 153 152 144 144 136 120 109 107 107 103 97 91 89 87 85 80 76 75 74 77 76 76
236 155 105 118 132 134 134 133 123 122 124 99 109 123 121 122 123 129 129 130 126 127 121 114 108 114 120 120 120 123 118 128 133 129 101 103 107 109 107 119 133 129 115 108 94 81 93 92 77 61 48 50 79 95 97 90 110 114 122 133 132 140 150 163 164 166 173 159 137 127 116 111 112 107 104 103 101 98 98 97 92 90 82 78 78
288 101 99 80 132 133 131 127 117 127 118 107 121 126 125 126 120 123 131 126 131 132 129 128 127 132 120 122 114 108 120 118 135 118 104 107 112 112 119 116 116 125 122 120 123 100 81 90 79 62 50 54 83 96 104 116 109 107 110 112 109 109 105 104 110 116 161 177 126 115 103 87 83 88 110 75 84 79 67 73 75 90 106 90 83
299 77 79 40 102 128 125 101 121 129 113 117 120 121 120 122 121 104 107 131 136 132 132 128 121 118 121 118 114 114 112 115 120 109 113 125 127 125 112 117 128 138 132 134 131 120 118 99 73 66 62 70 73 79 81 86 96 99 103 103 102 98 95 96 95 94 91 112 133 127 87 88 77 73 97 77 81 77 68 64 69 87 99 94 88
154 25 20 27 94 88 102 177 151 130 118 127 133 137 133 120 119 116 112 106 103 120 120 113 94 88 86 75 73 30 99 120 110 109 108 123 127 122 124 112 117 141 135 135 142 146 146 135 88 66 74 72 69 69 74 71 85 99 98 98 98 96 91 91 92 91 94 99 104 99 92 82 78 78 84 78 70 62 56 50 48 65 87 104 95
104 81 62 4 342 132 137 219 138 133 129 143 147 145 134 131 128 121 123 115 113 115 119 115 111 75 48 58 59 35 347 78 101 94 95 118 126 120 122 117 135 138 144 135 144 148 159 126 103 95 83 76 68 70 67 69 84 92 97 94 92 92 92 88 87 89 94 96 91 87 85 82 78 74 71 72 71 67 61 58 56 68 91 99 97
108 106 133 131 142 263 156 160 136 132 130 139 140 141 130 128 127 107 100 125 124 137 142 122 81 129 129 102 76 36 309 37 55 74 103 117 121 122 137 140 159 157 144 148 145 147 132 117 125 120 98 69 65 57 60 55 71 89 90 90 89 87 88 90 90 91 91 91 92 87 82 80 80 79 78 76 75 73 70 68 64 65 70 76 76
119 129 128 147 144 281 214 140 131 132 119 126 138 139 145 146 139 136 119 69 108 142 150 122 128 128 113 107 138 104 344 10 2 23 49 96 152 143 163 161 167 173 172 152 150 136 160 142 143 117 89 86 75 69 65 64 73 75 84 91 94 93 90 90 91 92 91 90 86 85 85 85 83 82 80 77 76 75 73 73 71 68 70 71 69
131 127 151 148 147 184 279 140 137 132 136 137 142 147 147 153 140 136 132 125 134 147 145 143 140 140 156 178 159 116 119 271 139 321 346 123 40 170 181 181 169 176 155 150 150 161 154 140 118 108 106 100 98 84 77 72 70 74 74 79 87 95 98 100 100 102 98 92 90 90 88 88 86 85 83 80 78 77 77 75 74 72 72 72 71
153 143 158 151 159 155 226 145 134 127 138 144 150 157 161 164 149 141 150 150 146 130 95 134 161 177 137 122 121 161 205 172 127 354 330 139 237 188 193 182 171 158 151 139 129 135 130 113 115 117 111 107 101 93 79 68 64 62 74 89 98 102 104 104 104 102 102 102 99 95 94 91 90 88 86 83 81 80 80 79 78 77 77 75 74
160 155 149 163 146 215 203 147 139 140 145 154 152 148 156 162 160 150 153 156 144 131 125 58 159 169 164 170 167 172 156 170 124 160 280 247 203 246 210 217 176 129 143 147 137 121 109 116 119 118 118 108 93 82 80 74 77 79 79 78 92 104 107 109 110 109 107 106 103 102 98 95 92 90 88 85 84 81 80 79 78 78 77 76 75
175 150 166 168 163 218 159 150 151 142 155 147 152 161 165 166 153 145 157 148 140 142 151 167 98 352 232 233 220 173 146 149 174 122 125 210 77 184 236 210 168 135 143 157 128 119 113 120 125 118 109 109 106 99 87 84 87 91 93 88 85 85 103 118 116 114 112 110 108 105 101 99 95 91 88 86 84 83 80 79 79 78 77 76 75
170 153 168 158 203 206 150 153 152 169 168 159 160 154 143 133 143 140 144 152 156 154 157 163 156 200 222 185 157 133 147 107 133 151 139 136 115 115 41 42 128 123 144 139 126 135 126 117 119 114 113 110 111 107 102 96 90 87 92 94 87 88 85 79 85 101 109 109 108 105 104 102 100 96 94 91 89 86 82 79 78 77 77 77 76
170 153 162 178 186 176 151 149 164 172 157 160 154 144 153 146 141 144 144 147 154 159 144 168 158 170 154 216 102 127 125 120 134 128 136 126 127 137 102 66 77 87 128 138 146 137 123 129 126 126 123 115 113 108 104 101 94 91 95 93 93 89 87 84 85 92 100 110 110 110 109 107 104 100 99 97 96 94 92 88 85 82 80 78 77
162 148 146 148 152 155 170 155 156 174 135 121 111 153 153 154 155 155 145 136 148 151 159 168 168 168 166 162 131 119 101 95 120 129 80 107 147 154 152 127 120 161 129 125 129 122 121 130 128 124 117 121 123 118 113 108 109 104 106 102 100 95 92 94 94 95 99 106 113 114 113 111 108 105 102 98 94 93 93 93 91 89 86 84 81
165 153 160 139 173 168 191 168 164 172 160 139 205 165 164 153 152 148 146 145 153 152 154 166 161 161 169 156 164 162 165 158 164 152 148 135 108 126 129 135 137 130 188 155 138 139 128 124 123 119 128 130 128 120 122 121 114 127 118 110 105 101 98 97 97 99 102 107 112 112 112 111 111 110 108 105 102 99 95 92 91 94 95 93 92
158 155 163 158 170 181 183 167 158 157 181 155 167 160 153 145 148 152 151 146 151 154 160 166 164 162 173 163 164 156 133 134 163 149 147 150 145 148 145 132 97 107 155 141 154 137 128 122 130 132 135 134 131 127 122 121 135 132 118 116 111 108 109 104 100 99 103 108 112 116 114 112 111 111 108 105 103 100 95 88 79 71 73 86 93
150 152 164 162 162 172 163 140 145 102 19 153 147 153 149 147 156 154 153 155 163 164 167 175 166 163 171 167 156 154 153 159 142 146 137 137 139 142 157 142 139 152 173 132 189 137 127 132 133 137 139 135 134 130 134 139 145 136 125 121 121 119 119 116 111 109 104 102 107 113 118 118 116 112 109 106 104 98 90 80 72 67 59 44 47
150 149 150 154 157 159 153 127 151 124 126 322 157 158 149 152 153 155 158 159 161 163 168 168 159 161 149 145 161 166 167 160 154 143 145 137 148 155 150 127 137 161 167 169 205 108 69 127 137 136 133 136 138 140 144 150 146 143 131 131 128 128 128 127 125 121 116 108 102 97 100 108 116 117 114 111 105 99 96 98 93 87 79 72 63
149 149 140 142 138 142 153 154 163 162 152 186 163 145 155 147 147 147 149 154 156 158 161 151 152 156 153 157 167 169 169 164 156 165 154 165 159 163 145 139 143 151 172 189 177 160 141 124 147 136 140 140 146 148 150 152 157 149 136 130 137 139 137 139 138 134 130 126 120 118 113 111 115 119 124 124 126 127 125 118 112 108 98 95 84
145 138 143 136 137 135 137 147 156 147 157 155 145 149 157 159 136 146 155 158 153 159 164 149 154 161 159 160 151 176 178 166 165 167 164 170 144 142 149 152 149 166 186 186 182 164 145 127 48 148 146 150 155 150 150 151 156 155 139 138 143 151 154 154 150 143 143 143 142 139 139 141 145 149 148 150 150 151 147 143 139 131 127 122 114
143 143 137 136 140 139 137 135 134 140 137 143 137 153 148 143 145 151 159 162 154 162 157 151 159 157 156 161 162 171 183 172 162 170 169 169 149 166 168 163 166 154 166 181 198 140 167 142 140 201 188 153 151 153 151 166 166 160 148 153 157 166 177 167 157 154 153 160 162 165 168 174 174 172 175 175 172 170 168 163 159 158 157 153 149
145 145 142 143 145 143 136 136 137 135 143 140 153 158 186 152 153 158 162 156 154 152 165 156 160 157 155 160 160 173 187 164 172 171 157 178 162 175 155 160 161 162 168 161 202 179 153 189 153 147 183 169 152 157 159 168 174 164 162 167 174 182 185 177 170 173 174 176 180 186 191 196 197 195 195 197 190 183 178 178 176 180 182 183 169
139 142 142 143 142 139 139 135 136 138 141 147 146 155 154 148 148 154 159 153 154 160 167 159 161 153 159 170 172 172 169 166 162 169 150 162 186 165 144 154 191 174 158 147 148 222 159 171 185 162 158 173 164 157 158 163 179 178 172 178 187 187 180 191 189 190 191 193 196 200 206 212 212 210 213 208 206 197 197 194 193 196 205 199 175
137 138 140 138 136 137 141 142 148 148 151 156 145 152 149 152 154 156 164 156 162 170 169 167 157 158 165 176 184 177 170 151 153 177 171 172 185 165 180 167 183 169 163 157 161 178 198 157 163 163 160 159 163 157 159 172 187 195 177 189 190 178 182 199 205 206 204 206 208 211 214 215 217 218 220 218 219 213 216 209 200 204 209 201 183
135 134 138 141 138 140 146 154 159 153 153 153 150 151 150 158 163 161 163 165 168 177 168 172 160 163 168 173 185 193 169 155 170 176 165 189 197 201 208 156 191 150 162 155 149 158 163 179 152 164 165 150 164 170 160 173 177 203 218 192 184 180 195 201 207 212 213 212 212 215 219 219 217 219 219 219 217 218 216 214 207 208 204 193 189
135 135 137 139 140 140 148 150 151 146 147 152 152 151 148 159 168 166 163 166 165 169 165 172 169 173 168 167 180 188 175 174 173 167 183 178 200 214 225 182 218 159 188 144 153 152 157 159 144 140 157 172 159 179 167 172 188 191 206 201 193 195 199 206 210 218 217 215 214 215 216 217 216 217 217 216 217 214 214 212 208 206 201 192 191
128 130 136 139 149 155 155 146 147 144 149 152 154 153 155 155 159 168 164 159 156 159 164 171 160 153 157 171 180 179 175 169 178 188 186 194 189 215 222 190 212 186 188 160 138 150 152 182 169 157 172 184 175 182 182 181 183 187 195 204 197 199 207 203 210 221 218 218 219 217 215 214 213 213 215 215 215 215 213 211 207 205 203 194 191
132 137 143 152 167 157 167 156 159 160 160 162 162 165 160 145 148 155 161 165 164 164 174 176 168 162 160 149 161 148 141 158 179 187 198 194 205 214 230 218 210 203 175 165 165 144 156 150 198 171 182 175 209 188 180 182 177 187 198 202 202 204 208 206 210 214 216 216 220 220 219 217 214 212 213 215 216 216 215 211 206 202 200 194 189
149 145 160 163 165 155 161 162 160 165 162 160 164 170 158 149 150 156 169 176 177 182 182 180 172 166 160 160 158 147 153 150 207 181 208 208 222 214 224 234 200 198 167 163 167 143 142 164 178 198 175 190 189 183 176 175 190 198 202 202 202 208 211 213 214 220 222 216 220 221 221 220 217 215 214 215 216 218 217 213 207 202 198 193 189
150 156 166 158 153 153 161 156 159 154 146 155 161 154 147 156 157 164 170 179 189 173 175 180 171 170 165 165 162 152 162 175 197 196 198 203 231 223 222 248 227 180 152 169 158 155 162 170 157 174 198 184 191 192 184 183 177 193 207 217 217 215 212 219 224 225 223 217 216 228 230 229 227 220 217 217 219 219 217 212 208 204 198 194 189
153 158 148 144 141 156 140 87 70 90 99 93 98 123 153 154 159 161 181 179 179 171 167 158 159 168 168 164 160 162 171 181 179 198 175 136 183 233 220 236 222 181 143 156 163 158 176 169 156 163 182 212 184 199 195 184 186 183 192 200 223 219 212 212 224 228 225 224 219 212 209 208 210 212 219 219 220 223 220 214 210 208 202 198 191
149 144 138 146 148 88 87 88 70 60 64 61 52 39 79 139 155 159 156 172 187 194 157 168 159 167 161 163 160 169 171 170 162 159 113 142 173 164 323 179 208 179 161 148 147 158 155 152 178 172 194 189 245 268 159 170 180 231 219 192 206 216 220 219 220 218 220 205 222 217 216 210 222 222 228 230 230 228 223 217 213 209 206 200 193
139 145 150 129 93 95 82 85 79 64 56 44 27 2 13 76 75 145 151 161 186 131 81 69 139 145 140 153 157 157 168 155 132 136 127 142 129 111 312 77 124 181 177 145 146 156 162 167 205 169 177 189 206 214 202 171 188 203 204 189 218 227 224 230 249 233 198 199 220 208 211 200 202 211 208 220 232 226 231 218 216 213 208 200 194
140 146 124 107 104 99 93 76 76 68 52 44 13 9 343 59 73 80 109 90 112 114 99 96 95 113 132 142 142 139 126 119 132 124 118 112 109 134 150 101 95 116 123 132 130 139 142 164 194 185 172 199 208 199 206 219 201 185 188 202 219 232 219 220 248 234 200 179 176 211 230 197 200 215 201 229 233 206 222 207 216 206 207 201 195
109 92 89 93 93 89 87 86 74 70 54 17 13 23 26 35 59 45 57 53 84 107 112 117 126 117 107 122 137 135 125 113 115 123 127 125 127 127 122 118 118 124 116 101 113 117 118 122 158 118 151 206 264 233 226 219 215 188 198 183 199 184 184 183 217 287 213 174 186 205 242 194 174 208 216 225 226 211 216 221 215 207 204 199 195
85 93 89 89 89 90 86 79 71 62 55 18 26 31 34 30 31 50 56 51 10 61 103 129 136 142 146 140 148 143 136 130 128 133 136 141 138 134 128 117 104 91 124 145 137 96 127 127 108 145 134 156 252 109 145 25 313 337 316 163 196 204 227 218 220 208 226 175 186 188 237 191 184 209 222 231 222 215 219 220 211 206 205 199 195
90 86 92 86 80 79 83 80 70 54 48 20 29 31 26 29 16 30 45 48 35 336 80 94 111 130 140 135 86 49 52 46 44 40 80 106 107 122 124 112 122 124 107 92 106 142 151 123 146 210 180 179 53 265 206 193 184 348 341 360 315 268 209 225 240 249 277 186 168 201 227 215 177 204 217 234 221 214 228 221 215 210 209 201 196
90 89 87 88 87 83 84 87 81 64 47 14 29 32 27 17 15 26 34 36 19 25 66 67 59 55 91 107 96 68 39 36 22 14 0 89 48 77 112 133 128 113 65 60 60 108 136 152 160 198 240 168 191 210 318 353 90 345 41 290 294 316 303 263 237 230 250 158 191 191 240 248 203 203 227 254 240 219 229 216 210 210 208 205 199
91 92 93 94 92 91 86 84 78 60 39 18 30 32 29 20 10 29 24 36 35 49 65 56 60 72 80 79 75 76 53 38 23 354 5 18 84 58 39 16 22 46 57 47 33 19 22 15 29 342 336 334 81 136 123 86 126 162 176 203 216 219 233 270 313 288 299 237 190 175 241 289 55 54 288 289 293 255 240 247 226 212 206 198 196
83 89 85 91 92 82 73 71 71 58 34 22 25 31 30 22 25 32 24 33 58 67 58 54 55 56 60 71 79 66 54 43 8 15 30 56 66 59 51 44 59 68 52 63 55 54 47 38 30 28 35 300 225 279 260 192 206 206 249 271 299 301 342 331 277 284 249 316 45 148 249 240 189 174 220 186 181 221 248 251 235 210 206 207 199
81 78 83 77 74 78 70 62 68 63 43 20 27 33 33 25 32 31 25 45 71 67 59 60 59 54 50 52 62 68 55 40 15 30 32 57 56 52 47 57 68 57 21 357 1 25 27 24 22 17 354 330 304 297 292 284 286 317 1 349 304 297 308 298 288 281 270 254 327 112 148 254 236 171 227 225 189 227 225 229 230 195 207 199 190
74 80 87 80 68 67 69 64 59 60 43 24 28 36 38 34 38 43 40 66 78 77 73 65 66 66 61 63 67 67 61 47 34 41 35 50 56 41 40 37 41 31 6 352 349 358 13 11 20 1 356 344 331 303 275 266 252 201 225 284 265 304 283 248 265 263 283 285 246 172 156 226 188 188 220 253 208 221 221 236 210 123 177 186 187
90 80 77 78 73 62 62 68 69 70 63 38 38 46 44 40 44 46 44 55 74 78 85 81 74 72 63 50 58 69 73 62 51 47 44 51 60 49 45 60 41 26 358 344 356 354 353 355 349 356 347 348 339 328 314 307 291 224 211 241 261 259 267 266 260 289 292 267 240 171 201 255 189 252 182 308 283 277 52 45 87 103 114 122 143